SCP
0 0 0 0 0 0 0 0 0 0 0 0 0 0 0 0 0 0 0 0 0 0 0 0 0 0 0 0 0 0 0 0 0 0 0 0 0 0 0 0 0 0 0 0 0 0 0 0 0
0 0 0 0 0 0 0 0 0 0 0 0 0 0 0 0 0 0 0 0 0 0 0 0 0 0 0 0 0 0 0 0 0 0 0 0 0 0 0 0 0 0 0 0 0 0 0 0 0
0 0 0 0 0 0 0 0 0 0 0 0 0 0 0 0 0 0 0 0 0 0 0 0 0 0 0 0 0 0 0 0 0 0 0 0 0 0 0 0 0 0 0 0 0 0 0 0 0
0 0 0 0 0 0 0 0 0 0 0 0 0 0 0 0 0 0 0 0 0 0 0 0 0 0 0 0 0 0 0 0 0 0 0 0 0 0 0 0 0 0 0 0 0 0 0 0 0
0 0 0 0 0 0 0 0 0 0 0 0 0 0 0 0 0 0 0 0 0 0 0 0 0 0 0 0 0 0 0 0 0 0 0 0 0 0 0 0 0 0 0 0 0 0 0 0 0
0 0 0 0 0 0 0 0 0 0 0 0 0 0 0 0 0 0 0 0 0 0 0 0 0 0 0 0 0 0 0 0 0 0 0 0 0 0 0 0 0 0 0 0 0 0 0 0 0
0 0 0 0 0 0 0 0 0 0 0 0 0 0 0 0 0 0 0 0 0 0 0 0 0 0 0 0 0 0 0 0 0 0 0 0 0 0 0 0 0 0 0 0 0 0 0 0 0
0 0 0 0 0 0 0 0 0 0 0 0 0 0 0 0 0 0 0 0 0 0 0 0 0 0 0 0 0 0 0 0 0 0 0 0 0 0 0 0 0 0 0 0 0 0 0 0 0
0 0 0 0 0 0 0 0 0 0 0 0 0 0 0 0 0 0 0 0 0 0 0 0 0 0 0 0 0 0 0 0 0 0 0 0 0 0 0 0 0 0 0 0 0 0 0 0 0
0 0 0 0 0 0 0 0 0 0 0 0 0 0 0 0 0 0 0 0 0 0 0 0 0 0 0 0 0 0 0 0 0 0 0 0 0 0 0 0 0 0 0 0 0 0 0 0 0
0 0 0 0 0 0 0 0 0 0 0 0 0 0 0 0 0 0 0 0 0 0 0 0 0 0 0 0 0 0 0 0 0 0 0 0 0 0 0 0 0 0 0 0 0 0 0 0 0
0 0 0 0 0 0 0 0 0 0 0 0 0 0 0 0 0 0 0 0 0 0 0 0 0 0 0 0 0 0 0 0 0 0 0 0 0 0 0 0 0 0 0 0 0 0 0 0 0
0 0 0 0 0 0 0 0 0 0 0 0 0 0 0 0 0 0 0 0 0 0 0 0 0 0 0 0 0 0 0 0 0 0 0 0 0 0 0 0 0 0 0 0 0 0 0 0 0
0 0 0 0 0 0 0 0 0 0 0 0 0 0 0 0 0 0 0 0 0 0 0 0 0 0 0 0 0 0 0 0 0 0 0 0 0 0 0 0 0 0 0 0 0 0 0 0 0
0 0 0 0 0 0 0 0 0 0 0 0 0 0 0 0 0 0 0 0 0 0 0 0 0 0 0 0 0 0 0 0 0 0 0 0 0 0 0 0 0 0 0 0 0 0 0 0 0
0 0 0 0 0 0 0 0 0 0 0 0 0 0 0 0 0 0 0 0 0 0 0 0 0 0 0 0 0 0 0 0 0 0 0 0 0 0 0 0 0 0 0 0 0 0 0 0 0
0 0 0 0 0 0 0 0 0 0 0 0 0 0 0 0 0 0 0 0 0 0 0 0 0 0 0 0 0 0 0 0 0 0 0 0 0 0 0 0 0 0 0 0 0 0 0 0 0
0 0 0 0 0 0 0 0 0 0 0 0 0 0 0 0 0 0 0 0 0 0 0 0 0 0 0 0 0 0 0 0 0 0 0 0 0 0 0 0 0 0 0 0 0 0 0 0 0
0 0 0 0 0 0 0 0 0 0 0 0 0 0 0 0 0 0 0 0 0 0 0 0 0 0 0 0 0 0 0 0 0 0 0 0 0 0 0 0 0 0 0 0 0 0 0 0 0
0 0 0 0 0 0 0 0 0 0 0 0 0 0 0 0 0 0 0 0 0 0 0 0 0 0 0 0 0 0 0 0 0 0 0 0 0 0 0 0 0 0 0 0 0 0 0 0 0
0 0 0 0 0 0 0 0 0 0 0 0 0 0 0 0 0 0 0 0 0 0 0 0 0 0 0 0 0 0 0 0 0 0 0 0 0 0 0 0 0 0 0 0 0 0 0 0 0
0 0 0 0 0 0 0 0 0 0 0 0 0 0 0 0 0 0 0 0 0 0 0 0 0 0 0 0 0 0 0 0 0 0 0 0 0 0 0 0 0 0 0 0 0 0 0 0 0
0 0 0 0 0 0 0 0 0 0 0 0 0 0 0 0 0 0 0 0 0 0 0 0 0 0 0 0 0 0 0 0 0 0 0 0 0 0 0 0 0 0 0 0 0 0 0 0 0
0 0 0 0 0 0 0 0 0 0 0 0 0 0 0 0 0 0 0 0 0 0 0 0 0 0 0 0 0 0 0 0 0 0 0 0 0 0 0 0 0 0 0 0 0 0 0 0 0
0 0 0 0 0 0 0 0 0 0 0 0 0 0 0 0 0 0 0 0 0 0 0 0 0 0 0 0 0 0 0 0 0 0 0 0 0 0 0 0 0 0 0 0 0 0 0 0 0
0 0 0 0 0 0 0 0 0 0 0 0 0 0 0 0 0 0 0 0 0 0 0 0 0 0 0 0 0 0 0 0 0 0 0 0 0 0 0 0 0 0 0 0 0 0 0 0 0
0 0 0 0 0 0 0 0 0 0 0 0 0 0 0 0 0 0 0 0 0 0 0 0 0 0 0 0 0 0 0 0 0 0 0 0 0 0 0 0 0 0 0 0 0 0 0 0 0
0 0 0 0 0 0 0 0 0 0 0 0 0 0 0 0 0 0 0 0 0 0 0 0 0 0 0 0 0 0 0 0 0 0 0 0 0 0 0 0 0 0 0 0 0 0 0 0 0
0 0 0 0 0 0 0 0 0 0 0 0 0 0 0 0 0 0 0 0 0 0 0 0 0 0 0 0 0 0 0 0 0 0 0 0 0 0 0 0 0 0 0 0 0 0 0 0 0
0 0 0 0 0 0 0 0 0 0 0 0 0 0 0 0 0 0 0 0 0 0 0 0 0 0 0 0 0 0 0 0 0 0 0 0 0 0 0 0 0 0 0 0 0 0 0 0 0
Wind_Speed
10 11 8 3 2 1 4 6 7 7 8 9 9 9 12 12 9 8 3 4 7 9 10 10 9 10 10 11 11 11 11 12 12 12 13 13 13 13 13 13 13 13 14 14 13 12 11 11 10
11 7 4 3 2 2 5 6 9 9 7 6 8 11 12 12 11 8 4 4 7 10 10 9 9 10 10 10 11 11 11 11 12 12 12 12 13 13 12 12 13 13 13 13 13 12 11 11 10
12 8 3 2 2 4 5 7 8 8 5 5 7 10 10 7 8 6 5 5 8 10 10 9 9 10 10 10 11 11 11 11 11 11 12 12 12 12 12 12 12 13 13 12 12 11 11 10 10
6 3 2 1 5 8 7 7 6 7 6 6 8 9 10 8 7 7 6 7 9 10 10 9 9 10 10 10 11 11 11 11 11 11 11 11 12 12 12 12 12 12 12 12 11 11 11 10 9
4 3 1 2 5 7 7 6 6 6 7 8 9 11 10 9 10 8 6 8 9 9 9 9 9 9 10 10 11 11 10 10 10 10 10 11 11 11 11 11 11 11 11 11 11 11 10 10 9
3 2 1 2 6 6 5 5 5 8 8 7 9 11 8 8 7 6 7 7 8 9 10 9 10 10 10 10 10 10 10 9 10 9 9 10 10 10 10 11 11 11 11 10 10 9 9 8 8
2 2 0 4 6 4 5 5 6 6 6 6 6 9 8 7 6 6 7 6 6 7 8 8 8 8 9 10 10 9 9 9 8 8 7 8 8 9 9 10 10 10 9 9 8 8 7 7 7
3 2 1 3 5 4 5 5 6 6 6 6 5 7 8 8 7 7 7 6 6 5 5 7 8 8 7 6 8 9 8 7 7 6 5 5 6 7 7 8 8 8 8 7 6 6 6 5 4
3 1 1 2 3 5 5 5 6 5 6 7 8 10 11 11 8 7 6 5 5 5 4 5 6 6 6 6 7 6 7 6 5 4 4 3 2 4 4 7 7 6 5 4 4 3 3 2 1
0 1 2 4 4 4 5 4 4 4 5 7 9 11 12 10 8 7 6 6 6 5 4 4 4 5 5 5 5 3 3 3 2 2 2 1 2 3 5 5 5 4 2 2 1 0 1 1 0
1 1 2 4 5 4 4 3 3 4 4 5 8 11 10 9 7 7 6 6 6 5 4 4 4 4 5 3 3 2 2 2 2 3 3 2 3 2 2 2 2 1 1 1 1 1 1 1 1
1 2 2 3 5 3 2 2 3 4 3 5 7 10 9 8 6 5 6 7 5 5 5 4 4 3 4 4 2 2 2 1 1 2 2 2 1 1 1 1 1 1 1 1 1 1 2 3 3
2 2 2 3 3 2 2 2 3 4 5 6 7 9 8 7 6 5 5 7 6 5 5 4 4 4 4 3 2 3 2 2 2 2 2 2 2 2 1 1 1 2 1 2 2 3 4 4 4
2 2 1 2 3 3 2 2 1 3 5 6 7 7 7 5 5 5 5 5 6 5 5 4 4 4 4 3 2 3 2 2 2 2 2 2 2 2 2 2 2 2 2 2 2 3 3 2 3
3 3 3 3 4 4 2 1 2 3 6 6 7 7 6 6 4 4 5 5 5 5 5 5 3 4 3 3 3 3 2 2 2 2 1 2 3 3 2 2 2 2 2 2 2 3 2 2 3
7 6 4 5 4 4 3 2 2 3 4 5 5 6 6 5 5 4 5 4 4 4 5 5 3 3 3 3 3 2 2 3 2 2 2 2 3 3 3 2 2 2 2 2 2 2 2 2 2
6 5 5 5 5 5 4 2 3 3 3 3 3 4 6 5 4 3 4 4 4 4 4 5 4 3 3 3 3 2 3 3 2 2 2 2 3 3 3 2 2 2 2 2 2 2 2 2 2
4 4 4 4 6 5 4 3 3 3 3 2 3 3 4 5 4 4 4 4 3 3 4 4 4 4 3 2 2 2 2 2 2 1 2 3 3 3 3 2 2 2 2 2 2 2 2 1 1
4 4 3 2 4 4 3 2 3 3 3 3 3 3 3 4 5 5 5 4 3 3 3 4 4 4 3 2 2 1 1 1 1 1 1 2 2 2 2 2 2 2 2 1 2 1 2 1 1
5 5 4 3 2 2 3 4 4 5 5 3 2 3 3 2 4 5 5 4 3 2 2 4 3 3 3 2 2 1 1 1 1 1 1 2 2 2 2 2 1 1 1 1 1 2 1 1 1
6 5 3 2 2 4 4 4 5 6 5 4 3 3 4 3 4 4 4 4 4 3 2 2 3 3 3 3 2 1 1 1 1 1 1 1 1 1 1 1 1 1 1 0 1 1 0 1 1
5 3 4 4 4 4 6 3 4 6 6 5 3 3 3 3 4 4 4 3 3 3 3 2 2 3 3 3 2 2 2 1 1 1 1 0 1 1 1 1 1 1 1 0 0 1 0 0 1
4 4 5 7 7 7 7 5 4 6 5 5 4 3 3 3 4 4 3 3 3 2 2 2 2 2 3 3 3 2 2 1 1 1 2 1 1 1 1 1 0 0 0 0 0 0 0 1 1
5 6 7 7 7 7 8 5 2 4 5 5 4 4 4 3 4 4 4 4 3 3 2 2 2 1 2 2 2 2 2 2 2 1 1 1 1 1 1 1 0 0 0 1 1 1 1 1 1
5 5 3 4 5 4 4 3 3 4 5 5 4 4 3 4 4 4 4 4 3 3 3 2 2 1 2 2 2 2 2 2 2 2 2 2 1 1 1 1 1 1 1 1 1 1 1 1 1
5 6 4 3 3 2 3 3 5 7 7 6 5 4 4 4 4 3 4 3 3 3 3 2 1 1 1 1 2 1 1 1 1 2 1 2 1 2 2 2 2 2 2 1 1 1 1 1 2
5 5 5 6 7 6 2 4 6 6 6 5 4 4 4 3 3 3 3 3 3 2 2 2 2 1 2 2 1 1 1 1 1 0 0 0 0 0 1 1 2 2 2 2 2 1 2 2 2
6 6 4 4 3 4 3 3 3 5 5 4 4 4 4 3 3 3 3 3 3 3 2 2 1 1 1 1 1 1 1 1 1 1 1 0 1 1 1 1 2 1 1 1 1 1 2 2 2
6 6 5 4 4 4 2 1 4 5 5 4 4 4 3 3 3 2 1 1 2 3 3 2 2 1 1 1 0 1 1 1 1 1 1 1 1 1 2 1 1 1 2 2 2 2 2 3 2
4 5 5 4 4 5 4 1 4 5 5 4 4 4 4 3 2 2 2 1 1 2 2 2 2 2 1 1 0 0 0 1 1 1 1 1 1 2 2 1 1 1 2 2 2 3 3 3 3
Wind_Direction
270 253 246 242 259 176 69 67 69 63 62 53 50 59 64 51 52 88 116 78 88 96 94 79 67 69 68 66 67 66 68 66 64 64 62 61 62 64 65 66 65 64 66 68 70 69 69 69 70
282 278 271 244 256 89 75 75 72 64 71 75 65 65 72 67 71 95 100 81 91 93 89 80 74 72 71 69 69 70 69 68 67 65 64 63 64 65 66 66 66 65 66 67 68 67 66 66 64
270 271 270 275 31 67 85 83 88 87 79 76 75 62 57 66 76 93 108 108 91 91 90 86 80 78 76 73 71 72 72 69 67 66 66 66 66 66 67 66 67 66 66 65 64 63 63 62 59
275 269 246 58 62 66 86 96 100 98 82 73 84 77 70 58 82 103 119 108 97 99 99 96 88 85 81 79 76 76 73 71 69 68 68 68 68 68 68 68 68 67 67 65 62 60 59 57 54
249 261 233 100 84 77 81 90 102 93 80 72 78 89 86 76 92 111 118 105 106 106 107 110 103 96 91 86 81 79 76 73 71 70 71 70 69 70 71 70 70 69 67 66 64 60 56 52 47
272 267 227 106 94 84 86 85 84 84 86 88 95 98 95 103 104 114 110 104 108 112 114 115 111 105 98 93 86 83 80 77 75 74 74 73 72 74 76 74 73 71 69 68 64 60 57 51 42
284 291 267 108 100 94 83 70 72 76 81 70 80 95 111 114 119 119 108 103 100 107 122 128 128 116 108 103 97 93 88 84 83 81 79 77 78 79 80 78 75 71 70 68 65 63 59 54 44
287 295 28 92 107 94 87 78 77 77 73 68 63 97 120 130 133 120 113 111 104 102 117 127 129 130 128 120 112 107 101 95 95 94 89 83 89 91 87 83 80 76 71 68 67 64 58 52 39
276 303 24 67 91 100 104 99 94 89 94 81 73 84 117 133 133 124 122 113 111 111 112 111 118 128 130 124 118 120 119 118 115 114 113 107 92 95 93 83 89 85 79 69 69 72 64 51 1
213 10 45 70 86 101 107 112 123 124 107 101 98 102 120 132 139 141 138 138 133 130 117 108 113 115 113 110 124 136 129 136 140 107 109 103 76 72 81 96 97 89 88 67 65 13 299 270 249
172 125 72 76 81 89 100 106 107 107 98 109 119 126 134 141 149 146 142 133 127 128 116 111 107 106 105 103 117 111 109 124 108 91 81 83 79 85 91 112 111 107 95 35 359 305 311 34 63
131 86 84 84 86 90 104 101 97 93 94 102 119 131 139 149 154 148 137 131 133 127 118 111 110 108 105 103 106 115 109 98 91 100 94 90 84 74 66 86 89 53 36 18 5 0 12 36 47
164 132 127 119 114 126 117 104 101 108 108 110 121 131 142 148 147 140 132 133 128 123 124 121 114 105 95 95 107 100 99 99 88 76 84 88 94 85 72 60 52 46 31 17 19 27 26 25 27
155 145 184 171 155 154 142 136 152 137 130 129 132 136 145 150 151 141 135 138 137 137 134 120 118 114 117 115 103 95 90 100 90 75 65 84 93 92 85 63 51 43 41 28 26 32 35 23 34
187 193 212 204 189 170 158 167 201 162 146 150 152 150 149 151 150 147 141 137 134 139 134 123 122 111 115 106 98 96 99 91 79 79 63 66 73 76 71 61 51 35 36 39 33 27 31 28 35
207 213 214 198 189 173 187 208 182 150 164 161 158 155 152 153 161 153 137 130 127 130 126 121 116 107 98 91 93 88 89 87 78 63 49 53 72 76 73 66 56 38 38 39 37 27 31 26 25
220 221 205 185 181 183 189 200 158 147 162 163 163 154 150 146 146 134 129 125 121 120 121 123 122 108 92 83 86 80 81 79 81 65 47 29 53 68 70 64 48 44 48 40 28 31 33 27 12
233 221 211 197 172 185 182 191 151 148 165 161 152 153 146 145 143 124 112 108 113 122 119 119 117 111 99 88 82 76 78 73 66 60 55 36 40 54 64 69 57 45 49 35 38 36 22 18 342
275 272 246 215 173 175 179 194 161 159 167 171 167 163 142 141 136 120 112 108 101 100 111 111 124 126 116 103 95 101 103 108 86 77 65 62 55 60 69 55 54 47 58 49 41 45 21 347 345
253 252 246 221 191 202 197 205 188 173 175 172 171 150 145 140 131 126 131 127 127 125 145 132 129 123 122 121 126 124 117 123 111 95 73 68 61 45 58 68 64 45 52 64 52 49 15 326 359
248 258 263 250 243 242 228 216 192 170 158 153 161 156 149 140 130 133 133 131 136 138 140 139 141 131 129 125 114 101 88 70 74 93 80 70 86 77 53 45 61 70 63 109 119 83 96 302 307
256 268 266 261 249 245 226 235 182 161 156 162 161 143 123 115 116 122 123 116 126 144 156 147 143 151 145 141 142 148 148 155 177 160 149 137 80 81 81 53 32 47 59 49 219 133 178 144 301
273 279 267 262 256 261 245 242 180 156 155 163 158 146 130 128 127 126 126 123 119 113 132 138 137 135 140 151 151 167 177 181 160 142 147 146 122 98 81 59 31 35 14 249 247 115 202 210 209
267 259 251 250 254 251 234 228 158 162 166 158 153 149 143 132 120 124 121 110 104 98 87 102 116 127 124 133 152 173 181 174 156 170 161 171 164 170 164 170 193 171 227 251 211 187 218 233 232
248 259 253 226 218 233 206 189 124 109 107 116 133 136 132 136 130 124 122 120 122 117 109 90 85 102 121 138 170 185 196 198 189 196 190 183 186 195 202 204 219 217 213 223 224 207 228 221 222
248 249 261 283 277 281 218 164 118 108 97 92 98 104 104 111 117 116 117 124 125 125 127 127 131 147 149 175 206 201 201 172 204 215 188 188 197 208 190 204 219 217 208 207 197 241 243 236 227
259 243 269 284 287 279 221 127 122 106 108 108 107 102 98 99 109 116 118 126 130 130 140 151 157 175 177 191 201 165 188 150 167 257 293 244 228 230 198 206 223 227 217 205 190 217 243 240 232
260 286 272 263 282 271 239 170 155 148 137 123 116 114 108 105 110 106 129 149 153 150 159 153 150 167 187 193 204 166 182 174 179 185 188 230 322 314 285 254 228 210 226 230 204 213 249 240 232
225 236 255 266 263 281 279 82 82 123 131 133 124 116 110 98 94 96 92 130 153 149 159 160 163 177 174 188 233 219 187 169 159 173 203 217 214 264 279 269 273 244 229 220 223 237 242 244 247
249 248 255 261 274 279 283 84 81 99 101 107 114 109 98 89 83 85 74 39 153 156 164 171 168 165 166 169 170 313 214 173 173 186 202 209 223 238 252 277 286 270 265 238 228 239 248 238 241